Weather in Volodymyrivske

Ukraine / Dnipropetrovsk Region     48°10′14″N   35°30′34″E
temp.,
°C
wind,
m/s
gust,
m/s
humid.,
%
clouds,
%
prec.,
mm/h
press.,
hPa
HPBL,
m
7 may, fri
fri700:00+11n489292 0.0 1012320
03:00+10nnw4791100 0.1 1013364
06:00+8nw48967 0.0 1014278
09:00+13n33668 0.0 1016670
12:00+17wnw224218 0.0 10161598
15:00+18sw3338100 0.0 10152022
18:00+18s354318 0.0 10141445
21:00+13se454997 0.0 101452
8 may, sat
sat800:00+12s51272100 0.0 1013300
03:00+13sse71569100 0.0 1011400
06:00+12s71272100 0.1 1011346
09:00+13s61283100 0.6 1011415
12:00+14sw61178100 0.3 1011712
15:00+12wnw6994100 6.4 1011589
18:00+10nw61089100 4.9 1013700
21:00+8wnw41086100 6.7 1015477
9 may, sun
sun900:00+8nw61178100 0.1 1016507
03:00+5nnw81584100 0.1 1017887
06:00+5nnw61288100 0.0 1019643
09:00+8nnw811665 0.0 10211061
12:00+12nnw911455 0.0 10211835
15:00+14nnw8104499 0.0 10222532
18:00+12nnw710547 0.1 10231646
21:00+8nnw347117 0.3 102561
10 may, mon
mon1000:00+6nnw47765 0.0 1026121
03:00+4nnw49790 0.0 1027170
06:00+4nnw410810 0.0 1028208
09:00+11n710540 0.0 10271396
12:00+14n811435 0.0 10261944
15:00+15n101242100 0.0 10242023
18:00+13n71252100 0.0 1023979
21:00+12n81355100 0.0 10231034
11 may, tue
tue1100:00+11n81458100 0.0 1022741
03:00+11n71463100 0.0 1022587
06:00+10n7136924 0.0 1022519
09:00+13nne711695 0.0 1021592
12:00+18nne810604 0.0 10201052
15:00+20nne81056100 0.0 10191769
18:00+15ene7117895 0.8 1021851
21:00+10ene410920 0.9 1022338